sat.trackr.live / text

‹ back to catalog

STARLINK-3584

NORAD 51885 · 2022-022AK

PAYLOAD ACTIVE UNKNOWN

§ Identity

Operator
Country
US
Launch date
2022-03-03
Launch site
AFETR
Launch vehicle
Mass (kg)
RCS (m²)

Purposes: comms

External: N2YO · Heavens-Above · Gunter

§ Orbital elements

Epoch: 2026-05-24T22:31:35.599008Z

Period
95.44 min
Inclination
53.2137°
Eccentricity
0.0001662
Mean motion
15.08844439 rev/d
Perigee alt
538.6 km
Apogee alt
540.9 km
Semi-major
6,917.9 km
B*
-1.5605e-5
RAAN
16.8263°
Arg perigee
92.8013°
Mean anomaly
267.3170°
Rev number
23,475

§ Raw data

STARLINK-35841 51885U 22022AK  26144.93860647 -.00000536  00000+0 -15605-4 0  99912 51885  53.2137  16.8263 0001662  92.8013 267.3170 15.08844439234757

JSON: /api/v1/satellites/51885 · /tle

For live sub-satellite position, see the globe view (requires WebGL).

§ Visibility from observer

Set your observer location to see the next 7 days of passes ≥ 10°. The values pass through the URL so the page stays shareable.

No JS? Fill the form by hand. The geolocation button needs JavaScript.